Regional Weather Roundup
Issued by NWS Wakefield, VA

Home | Current Version | Previous Version | Text Only | Print | Product List | Glossary Off
Versions: 1 2 3 4 5 6 7 8 9 10 11 12 13 14 15 16 17 18 19 20 21 22 23 24 25 26 27 28 29 30 31 32 33 34 35 36 37 38 39 40 41 42 43 44 45 46 47 48 49 50

000
ASUS41 KAKQ 021310
RWRAKQ

REGIONAL WEATHER ROUNDUP
NATIONAL WEATHER SERVICE WAKEFIELD VA
800 AM EST MON MAR 02 2015

Note: "fair" indicates few or no clouds below 12,000 feet with no
significant weather and/or obstructions to visibility. * = Denotes
station may not report precipitation (e.g., rain,snow,etc.),
thunder or fog.

VAZ042-051-052>054-056-021400-
NORTHERN VIRGINIA

CITY           SKY/WX    TMP DP  RH WIND       PRES   REMARKS
WASH NATIONAL  CLOUDY    35  31  85 N5        30.19R FOG
DULLES         PTSUNNY   33  30  88 NW6       30.18R FOG
FORT BELVOIR   CLOUDY    33  32  97 CALM      30.18R FOG
QUANTICO       FOG       33  31  92 CALM      30.20R VSB 1/16
FREDERICKSBRG* FOG       34  34 100 CALM      30.17R VSB 1
STAFFORD*      FOG       32  32 100 CALM      30.21R VSB<1/4
WARRENTON      FOG       33  33 100 CALM      30.16R VSB 3/4
CULPEPER*      CLOUDY    34  34 100 CALM      30.17R FOG
MANASSAS*      CLOUDY    34  34 100 N6        30.18R FOG
LEESBURG*      MOSUNNY   39  36  87 NW16      30.18R
WINCHESTER     PTSUNNY   39  27  60 NW26G38   30.17R
FRONT ROYAL*   FAIR      41  30  65 W12G17    30.16R
LURAY*         FAIR      45  32  61 W15       30.17R
$$

VAZ048-049-060>072-079>083-021400-
CENTRAL AND SOUTH CENTRAL VIRGINIA

CITY           SKY/WX    TMP DP  RH WIND       PRES   REMARKS
RICHMOND       CLOUDY    35  34  96 SW5       30.16R FOG
CHESTERFIELD*  PTSUNNY   36  25  64 W3        30.16R
PETERSBURG*    PTSUNNY   37  37 100 SW3       30.17R FOG
HANOVER        FAIR      36  35  96 CALM      30.17R FOG
TAPPAHANNOCK*  CLOUDY    34  32  92 NW3       30.17R FOG
QUINTON*       CLOUDY    33  33  99 SW5       30.16R
CHARLOTTSVILLE MOSUNNY   34  31  88 NE6       30.12R
GORDONSVILLE*  FOG       32  32  99 N5        30.14R VSB<1/4
ORANGE*        FOG       34  34 100 CALM      30.16R VSB<1/4
LOUISA*        CLOUDY    36  36 100 CALM      30.12R FOG
BUMPASS*       CLOUDY    32  32 100 CALM      30.14R VSB<1/4
FARMVILLE*     FOG       38  38 100 SW7       30.18R VSB 1/2
CREWE*         FAIR      37  36  95 CALM      30.15R
FORT PICKETT*  CLOUDY    35  34  97 W6        30.16R
CHASE CITY*    CLOUDY    37  37 100 CALM      30.17R VSB<1/4
CLARKSVILLE*   CLOUDY    34  34 100 W3        30.17R VSB 1/4
SOUTH HILL*    CLOUDY    33  33 100 CALM      30.23R VSB 1/4
LAWRENCEVILLE* CLOUDY    33  33 100 W5        30.17R VSB 1/4
EMPORIA*       CLOUDY    32  32 100 CALM      30.19R FOG
$$

VAZ088>098-021400-
SOUTHEAST VIRGINIA

CITY           SKY/WX    TMP DP  RH WIND       PRES   REMARKS
NORFOLK        CLOUDY    36  34  92 SW12      30.13R FOG
VIRGINIA BEACH CLOUDY    38  35  89 W13       30.14R FOG
NORFOLK NAVAL  CLOUDY    38  34  85 W8        30.16R FOG
WEST POINT*    CLOUDY    37  35  93 SW5       30.17R
SALUDA*        CLOUDY    33  32  96 NW3       30.16R
NEWPORT NEWS   LGT RAIN  37  33  85 W8        30.14R FOG
LANGLEY AFB    LGT RAIN  36  32  87 W10       30.14R FOG
FORT EUSTIS    CLOUDY    34 N/A N/A NW6       30.14R
WILLIAMSBURG*  CLOUDY    37  36  93 W8        30.16R
HR EXEC AP*    CLOUDY    36  34  93 SW8       30.18R
FRANKLIN*      CLOUDY    35  34  98 W5        30.18R FOG
WAKEFIELD      LGT RAIN  34  32  92 SW5       30.17R
$$

VAZ020-022-025-037-045-021400-
WEST CENTRAL AND SOUTHWEST VIRGINIA

CITY           SKY/WX    TMP DP  RH WIND       PRES   REMARKS
STAUNTON*      CLOUDY    44  31  60 NW10      30.16R
WAYNESBORO*    PTSUNNY   44  32  64 W10G18    30.13R
HOT SPRINGS VA CLOUDY    32  32  99 W21G31    30.11R WCI  20
LYNCHBURG      SUNNY     47  39  74 VRB7      30.17R
DANVILLE       FOG       37  36  96 SW10      30.20R VSB 1/4
SOUTH BOSTON*  CLOUDY    37  35  95 SW5       30.18R VSB 1/4
MARTINSVILLE   SUNNY     38  38 100 S3        30.21R FOG
ROANOKE        CLOUDY    44  34  67 W18G26    30.22R
BLACKSBURG     CLOUDY    38  33  83 NW20G30   30.23R
DUBLIN*        CLOUDY    40  36  84 W10G20    30.26R
MARION*        CLOUDY    39  35  86 W26G36    30.27R
HILLSVILLE*    CLOUDY    40  38  91 W15G26    30.21R
RICHLANDS*     CLOUDY    33  32  96 NW7G21    30.33R
WISE*          CLOUDY    32  32 100 NW8       30.35R FOG
ABINGDON*      CLOUDY    39  39 100 N6        30.34R
$$

MDZ021>025-VAZ099-100-021400-
SOUTHERN MARYLAND AND THE DELMARVA PENINSULA

CITY           SKY/WX    TMP DP  RH WIND       PRES   REMARKS
PATUXENT RIVER CLOUDY    33  32  96 W6        30.15R FOG
BAY BRIDGE APT   N/A     32  32 100 CALM      30.17R FOG
LEONARDTOWN    CLOUDY    32  32 100 CALM      30.17R
DOVER          CLOUDY    33  33 100 CALM      30.14R FOG
GEORGETOWN     CLOUDY    33  31  92 VRB5      30.14R FOG
EASTON         CLOUDY    34  34 100 CALM      30.17R FOG
CAMBRIDGE      NOT AVBL
SALISBURY      CLOUDY    35  32  88 W3        30.14R FOG
OCEAN CITY     CLOUDY    33  32  96 NW6       30.13R FOG
WALLOPS ISLAND CLOUDY    32  32 100 SW6       30.15R FOG
ACCOMACK*      MIX PCPN  32  32 100 NW6       30.14R
$$

NCZ012>017-030>032-021400-
NORTH CENTRAL AND EASTERN NORTH CAROLINA

CITY           SKY/WX    TMP DP  RH WIND       PRES   REMARKS
ROANOKE RAPIDS FOG       36  36 100 SW8       30.18R VSB 3/4
RALEIGH        FOG       38  36  92 W6        30.20R VSB 1/8
ELIZABETH CITY CLOUDY    39  37  93 W8        30.17R FOG
AHOSKIE*       FOG       37  36  99 CALM      30.18S VSB 1/2
EDENTON*       LGT RAIN  39  38  99 SW7       30.17F VSB 1/2
CURRITUCK*     CLOUDY    38  37  97 SW9       30.16S FOG
KILL DEVIL HLS FOG       41  41 100 SW6       30.15S VSB 1/2
MANTEO         CLOUDY    41  41 100 W7        30.17S FOG
CAPE HATTERAS  FOG       42  42 100 W10       30.20R VSB 1/4
TARBORO*       CLOUDY    40  39  97 SW3       30.20R FOG
GOLDSBORO      CLOUDY    42  42 100 SW8       30.19S
WASHINGTON     CLOUDY    41  40  98 SW9       30.20S FOG
GREENVILLE     CLOUDY    41  41 100 W7        30.21S FOG
NEW BERN       CLOUDY    45  44  97 W7        30.22R FOG
WILMINGTON     CLOUDY    46  45  96 W8        30.24S FOG
$$

VAZ048-021400-
ELSEWHERE

CITY           SKY/WX    TMP DP  RH WIND       PRES   REMARKS
HARRISBURG PA  PTSUNNY   30  26  85 NW6       30.16R FOG
BALTIMORE      PTSUNNY   33  31  92 W3        30.16R FOG
ANNAPOLIS      CLOUDY    33  31  92 SW10G21   30.16R FOG     WCI  25
ANDREWS AFB    CLOUDY    33  32  99 CALM      30.16R FOG
PHILADELPHIA   CLOUDY    33  31  92 W7        30.14R FOG
HENDERSON NC   FOG       36  35  96 CALM      30.18R VSB 1/4
GREENSBORO     FOG       38  37  97 W7        30.19R VSB 1/4
ROCKY MOUNT    CLOUDY    40  40 100 SW6       30.19S FOG
$$

VAZ100-021400-
MARINE

STATION/POSITION TIME  TEMP    WIND        PRES    WAVE   SWELL
                       AIR SEA DIR/SP/G            HT/PER HT/PER
                 (UTC) (F)     (DEG/KT/KT) (MB)    (FT/S) (FT/S)
BRANDYWINE LGT   1300   32 30              1020.5R
CAPE MAY NJ      1300   31 33              1020.0R
LEWES DE         1300   33 30              1020.4R
15NM E FENWICK I 1300   33 35              1020.0R   3/ 7
OCEAN-CITY-INLET 1300   33 32              1020.0R
WACHAPREAGUE VA  1300   34 33  320/  1/  6 1020.6R
THOMAS POINT MD  1300   32 31     CALM     1022.7R
COVE POINT MD    1300   33                 1020.7R
SOLOMONS ISLAND  1300      33                N/A
BISHOPS HEAD MD  1300   32 31              1020.3R
CAMBRIDGE MD     1300   33 32              1020.6R
LEWISETTA VA     1300      32              1021.4R
RAPPAHANNOCK LGT 1300          280/  5/  5 1021.5R
STINGRAY PT      1300   33 32  360/  6/  6   N/A     0
YORK RVR RNG VA  1300   34     270/ 10/ 11 1019.8R
YORKTOWN VA      1300          270/  9/ 12   N/A
DOMINION TERM VA 1300   34     270/  9/ 10 1020.9R
KIPTOPEKE VA     1300      36  270/  7/  8   N/A
CHES BAY BRIDGE  1300   35 33  220/ 12/ 12 1019.7R
CAPE HENRY VA    1300   36     240/  8/ 14 1018.8R
CHESAPEAKE LGHT  1200   35     240/ 12/ 13 1020.8F
WILLOUBY STN VA  1300          250/ 13/ 13 1020.9R
S CRANEY ISL VA  1300          220/  8/ 12 1020.5R
CAPE HENRY BUOY  1300      35                N/A     3/ 6
1ST LANDING BUOY 1300   35 33  250/ 12/ 14 1020.1R   1/ 3
OFFSHORE WE BUOY 1300      36                N/A     3/ 6   3/ 6
64NM E OF VA BCH 1300   43 51  250/ 17/ 19 1019.7F   4/ 7   3/ 7
DUCK PIER NC     1300   38 34  250/ 13/ 18 1020.0R
44100 DUCK FRF   1300      37                N/A     3/ 7
44056 DUCK FRF   1300                        N/A     3/ 6
OREGON INLET NC  1300   40 42  220/  7/  7 1021.5S
HATTERAS NC      1300          280/  9/ 11   N/A
CAPE LOOKOUT NC  1200   46     250/  8/ 10 1022.7F
$$


USA.gov is the U.S. government's official web portal to all federal, state and local government web resources and services.